Regional Weather Roundup
Issued by NWS Sterling, VA

Home | Current Version | Previous Version | Graphics & Text | Print | Product List | Glossary On
Versions: 1 2 3 4 5 6 7 8 9 10 11 12 13 14 15 16 17 18 19 20 21 22 23 24 25 26 27 28 29 30 31 32 33 34 35 36 37 38 39 40 41 42 43 44 45 46 47 48 49 50
057
ASUS41 KLWX 191210
RWRLWX

REGIONAL WEATHER ROUNDUP
NATIONAL WEATHER SERVICE BALTIMORE MD/WASHINGTON DC
800 AM EDT THU APR 19 2018

Note: "FAIR" indicates few or no clouds below 12,000 feet
with no significant weather and/or obstructions to visibility.
 TC=TEMPERATURE CELSIUS

 * =Non NWS site. Station does not report precipitation (e.g. rain,
    snow, etc.), thunder, or fog.

DCZ001-MDZ009-015-VAZ040>042-051-053>054-191300-
WASHINGTON METRO

CITY           SKY/WX    TMP DP  RH WIND       PRES   REMARKS
WASHINGTON NAT LGT RAIN  53  40  61 W5        29.72R
DULLES         LGT RAIN  49  44  83 W5        29.72R
ANDREWS AFB    LGT RAIN  51  41  70 W5        29.71R
FT BELVOIR     LGT RAIN  51  42  73 CALM      29.71R
QUANTICO       LGT RAIN  51  45  79 NW6       29.74R
COLLEGE PARK*  CLOUDY    50  39  65 CALM      29.71R
LEESBURG*      CLOUDY    50  46  87 NW7       29.73R
MANASSAS*      LGT RAIN  49  44  83 CALM      29.73R
GAITHERSBURG*  LGT RAIN  48  42  80 W6        29.71R

$$

MDZ006>007-011-014-191300-
BALTIMORE METRO

CITY           SKY/WX    TMP DP  RH WIND       PRES   REMARKS
BWI AIRPORT    CLOUDY    50  40  68 W7        29.69R
MD SCIENCE CTR   N/A     52  37  56 MISG      29.69R
MARTIN STATE   CLOUDY    52  43  71 NW7       29.68R
ANNAPOLIS      CLOUDY    53  44  71 W6        29.69R
FORT MEADE*    CLOUDY    48  41  76 W3        29.73R

$$

MDZ012-015-019>023-191300-
MARYLAND EASTERN SHORE

CITY           SKY/WX    TMP DP  RH WIND       PRES   REMARKS
OCEAN CITY     CLOUDY    50  47  89 N13       29.67R
SALISBURY      FAIR      51  44  77 N10       29.67R
BAY BRIDGE AP* CLOUDY    52  43  71 CALM      29.68R
CAMBRIDGE*     PTSUNNY   52  43  71 VRB6      29.65F
EASTON*        PTSUNNY   52  41  66 CALM      29.68F

$$

MDZ017>025-191300-
SOUTHERN MARYLAND

CITY           SKY/WX    TMP DP  RH WIND       PRES   REMARKS
PATUXENT RIVER CLOUDY    54  44  69 NE3       29.68R
ST INIGOES     PTSUNNY   52  44  74 CALM      29.69R
LEONARDTOWN*   CLOUDY    50  43  76 CALM      29.71R

$$

MDZ003>005-191300-
NORTH CENTRAL MARYLAND

CITY           SKY/WX    TMP DP  RH WIND       PRES   REMARKS
FREDERICK*     CLOUDY    46  46 100 CALM      29.74R
HAGERSTOWN APT CLOUDY    46  43  89 CALM      29.70R FOG
WESTMINSTER*   CLOUDY    46  43  87 NW3       29.69R

$$

MDZ501>502-191300-
WESTERN MARYLAND

CITY           SKY/WX    TMP DP  RH WIND       PRES   REMARKS
OAKLAND*       CLOUDY    37  37 100 W13G28    29.70R WCI  29
CUMBERLAND*    PTSUNNY   46  46 100 CALM      29.75S

$$

VAZ025>031-191300-
SHENANDOAH VALLEY

CITY           SKY/WX    TMP DP  RH WIND       PRES   REMARKS
WINCHESTER*    CLOUDY    46  41  81 W6        29.73F
FRONT ROYAL*   CLOUDY    48  43  81 CALM      29.71S
LURAY*         CLOUDY    50  46  87 CALM      29.72S
NEW MARKET*    CLOUDY    50  47  92 W3        29.72R
STAUNTON*      FAIR      49  47  94 CALM      29.76R
WAYNESBORO*    FAIR      50  49  98 SW5       29.74R

$$

WVZ021-048>050-054>055-191300-
EASTERN WEST VIRGINIA PANHANDLE

CITY           SKY/WX    TMP DP  RH WIND       PRES   REMARKS
MARTINSBURG    CLOUDY    47  44  90 SW7       29.70R
PETERSBURG*    CLOUDY    52  39  62 W18       29.74R

$$

VAZ036>039-050-191300-
CENTRAL FOOTHILLS

CITY           SKY/WX    TMP DP  RH WIND       PRES   REMARKS
CHARLOTTESVILL LGT RAIN  50  47  89 CALM      29.71S
CULPEPER*      RAIN      49  46  88 CALM      29.73R
ORANGE*        LGT RAIN  46  45  93 CALM      29.73R
GORDONSVILLE*  CLOUDY    48  48 100 CALM      29.72S
WARRENTON*     RAIN      49  44  83 CALM      29.72R

$$

VAZ055>057-191300-
NORTH AND CENTRAL PIEDMONT

CITY           SKY/WX    TMP DP  RH WIND       PRES   REMARKS
FREDERICKSBRG* RAIN      49  47  94 CALM      29.72F
STAFFORD*      RAIN      48  48 100 SW3       29.77R

$$

NCZ024-NYZ072-PAZ021-071-VAZ022-071-191300-
OTHER REGIONAL OBSERVATIONS

CITY           SKY/WX    TMP DP  RH WIND       PRES   REMARKS
NEW YORK CITY  CLOUDY    42  38  85 E7        29.63F
PHILADELPHIA   PTSUNNY   50  37  61 E3        29.63S
PITTSBURGH     LGT SNOW  34  32  92 NW14      29.82R FOG     WCI  25
ROANOKE        CLOUDY    57  46  66 NW8       29.81R
RICHMOND       PTSUNNY   51  48  89 N10       29.74R
RALEIGH        FAIR      66  53  63 SW12      29.74R

$$

ANZ530>537-191300-
MARINE OBSERVATIONS

STATION/POSITION TIME  TEMP    WIND        PRES
                       AIR SEA DIR/SP/G
                 (UTC) (F)     (DEG/KT/KT) (MB)
THOMAS PT LIGHT  1200   50 50  290/  9/ 10 1006.5R
BALT KEY BRIDGE  1136   51     320/  6/  7 1004.6R
COVE POINT       1136   51      30/  6/  8 1005.2R
LEWISETTA        1136   51 55   40/  2/  4 1005.6R
SOLOMONS ISLAND  1136   51 52  360/  3/  6 1004.7R
PINEY POINT      1142          320/  3/  4   N/A

$$





USA.gov is the U.S. government's official web portal to all federal, state and local government web resources and services.